This is the latest recevied weather packets stored in our database for station/object KD2FGL-13. If no packets are shown the sender has not sent any weather packets the latest 10 day(s).
| Time | Temp. | Humidity | Pressure | Rain* | Wind** | Luminosity | Snow |
|---|---|---|---|---|---|---|---|
| 1777347119 | 13.89° C | 44% | 1026.6 hPa | 0 mm | - | - | - |
| 1777345903 | 14.44° C | 43% | 1026.7 hPa | 0 mm | - | - | - |
| 1777343471 | 15° C | 41% | 1026.4 hPa | 0 mm | - | - | - |
| 1777343167 | 15.56° C | 41% | 1026.5 hPa | 0 mm | - | - | - |
| 1777341648 | 16.11° C | 40% | 1026.7 hPa | 0 mm | - | - | - |
| 1777341040 | 16.11° C | 39% | 1026.5 hPa | 0 mm | - | - | - |
| 1777340128 | 16.67° C | 38% | 1026.4 hPa | 0 mm | - | - | - |
| 1777338608 | 17.22° C | 36% | 1026.1 hPa | 0 mm | - | - | - |
| 1777338000 | 17.78° C | 34% | 1026 hPa | 0 mm | - | - | - |
| 1777336480 | 18.89° C | 33% | 1025.5 hPa | 0 mm | - | - | - |
| 1777335873 | 19.44° C | 32% | 1025.3 hPa | 0 mm | - | - | - |
| 1777334961 | 20° C | 31% | 1025.2 hPa | 0 mm | - | - | - |
| 1777334657 | 20° C | 30% | 1025.2 hPa | 0 mm | - | - | - |
| 1777333748 | 20.56° C | 29% | 1024.8 hPa | 0 mm | - | - | - |
| 1777333441 | 20.56° C | 28% | 1024.8 hPa | 0 mm | - | - | - |
| 1777332833 | 21.11° C | 28% | 1024.7 hPa | 0 mm | - | - | - |
| 1777332226 | 21.67° C | 27% | 1024.4 hPa | 0 mm | - | - | - |
| 1777331619 | 22.22° C | 26% | 1024.3 hPa | 0 mm | - | - | - |
| 1777331010 | 22.78° C | 25% | 1024.3 hPa | 0 mm | - | - | - |
| 1777330706 | 22.78° C | 25% | 1024.1 hPa | 0 mm | - | - | - |
| 1777330098 | 23.33° C | 24% | 1024 hPa | 0 mm | - | - | - |
| 1777329794 | 23.33° C | 23% | 1024 hPa | 0 mm | - | - | - |
| 1777329490 | 23.89° C | 23% | 1023.9 hPa | 0 mm | - | - | - |
| 1777328580 | 23.89° C | 23% | 1023.8 hPa | 0 mm | - | - | - |
| 1777327971 | 23.89° C | 22% | 1024.1 hPa | 0 mm | - | - | - |
* Rain since midnight (hover to see other rain measurements)
** Current wind speed in m/s (hover to see current wind gust speed)